DW4604 Weather Reports


time (UTC)temp
C
wind
direction
speed
KPH
gust
KPH
rain 1hr
cm
rain 24hr
cm
rain mn
cm
humidity
%
barometer
mb
20260502222438 10 0 0.0 0.0 0.00 0.00 0.00 71 1018.6
20260502221937 10 0 0.0 0.0 0.00 0.00 0.00 71 1018.7
20260502221437 10 0 0.0 0.0 0.00 0.00 0.00 71 1018.7
20260502220937 10 0 0.0 0.0 0.00 0.00 0.00 72 1018.7
20260502215437 9 0 0.0 0.0 0.00 0.00 0.00 73 1018.9
20260502214938 9 0 0.0 0.0 0.00 0.00 0.00 73 1018.9
20260502214436 10 0 0.0 0.0 0.00 0.00 0.00 72 1019.0
20260502213937 10 0 0.0 0.0 0.00 0.00 0.00 71 1019.0
20260502213437 10 0 0.0 0.0 0.00 0.00 0.00 72 1019.0
20260502212937 10 0 0.0 0.0 0.00 0.00 0.00 71 1019.1
20260502212436 10 0 0.0 0.0 0.00 0.00 0.00 69 1019.1
20260502211937 10 0 0.0 0.0 0.00 0.00 0.00 68 1019.2
20260502211437 11 0 0.0 0.0 0.00 0.00 0.00 66 1019.2
20260502210937 11 0 0.0 0.0 0.00 0.00 0.00 65 1019.1
20260502210437 12 0 0.0 0.0 0.00 0.00 0.00 64 1019.1
20260502205936 12 0 0.0 0.0 0.00 0.00 0.00 63 1019.1
20260502205436 12 0 0.0 0.0 0.00 0.00 0.00 63 1019.1
20260502204937 12 0 0.0 0.0 0.00 0.00 0.00 63 1019.1
20260502204436 12 0 0.0 0.0 0.00 0.00 0.00 63 1019.2
20260502203936 12 0 0.0 0.0 0.00 0.00 0.00 63 1019.3
20260502203436 12 0 0.0 0.0 0.00 0.00 0.00 64 1019.3
20260502202937 12 0 0.0 0.0 0.00 0.00 0.00 64 1019.4
20260502202437 12 0 0.0 0.0 0.00 0.00 0.00 64 1019.4
20260502201938 12 0 0.0 0.0 0.00 0.00 0.00 64 1019.4
20260502201437 12 0 0.0 0.0 0.00 0.00 0.00 63 1019.4
20260502200937 12 0 0.0 0.0 0.00 0.00 0.00 63 1019.3
20260502200437 12 0 0.0 0.0 0.00 0.00 0.00 64 1019.3
20260502195938 12 0 0.0 0.0 0.00 0.00 0.00 63 1019.5
20260502195437 12 0 0.0 0.0 0.00 0.00 0.00 64 1019.5
20260502194437 12 0 0.0 0.0 0.00 0.00 0.00 63 1019.5
20260502193437 12 0 0.0 0.0 0.00 0.00 0.00 64 1019.6
20260502192938 12 0 0.0 0.0 0.00 0.00 0.00 63 1019.6
20260502192438 13 0 0.0 0.0 0.00 0.00 0.00 63 1019.6
20260502191938 13 0 0.0 0.0 0.00 0.00 0.00 62 1019.6
20260502191439 13 0 0.0 0.0 0.00 0.00 0.00 62 1019.6
20260502190938 13 0 0.0 0.0 0.00 0.00 0.00 61 1019.6
20260502190437 13 0 0.0 0.0 0.00 0.00 0.00 60 1019.6
20260502185937 13 0 0.0 0.0 0.00 0.00 0.00 59 1019.5
20260502185437 14 0 0.0 0.0 0.00 0.00 0.00 58 1019.5
20260502184937 14 0 0.0 0.0 0.00 0.00 0.00 58 1019.5
20260502184437 14 0 0.0 0.0 0.00 0.00 0.00 57 1019.4
20260502183938 14 0 0.0 0.0 0.00 0.00 0.00 57 1019.4
20260502183437 15 0 0.0 0.0 0.00 0.00 0.00 57 1019.4
20260502182938 15 0 0.0 0.0 0.00 0.00 0.00 56 1019.4
20260502181938 16 0 0.0 0.0 0.00 0.00 0.00 54 1019.4
20260502181437 16 0 0.0 0.0 0.00 0.00 0.00 54 1019.3
20260502180938 16 0 0.0 0.0 0.00 0.00 0.00 53 1019.3
20260502180438 17 0 0.0 0.0 0.00 0.00 0.00 52 1019.3
20260502170439 20 0 0.0 0.0 0.00 0.00 0.00 46 1019.1
20260502163938 20 0 0.0 0.0 0.00 0.00 0.00 42 1019.3
20260502163437 21 0 0.0 0.0 0.00 0.00 0.00 41 1019.3
20260502162938 21 0 0.0 0.0 0.00 0.00 0.00 40 1019.3
20260502162438 21 0 0.0 0.0 0.00 0.00 0.00 40 1019.3
20260502161938 21 0 0.0 0.0 0.00 0.00 0.00 40 1019.3
20260502161437 21 0 0.0 0.0 0.00 0.00 0.00 41 1019.5
20260502160937 21 0 0.0 0.0 0.00 0.00 0.00 37 1019.5
20260502160438 21 0 0.0 0.0 0.00 0.00 0.00 38 1019.5
20260502151939 22 0 0.0 0.0 0.00 0.00 0.00 34 1019.9
20260502151438 22 0 0.0 0.0 0.00 0.00 0.00 34 1019.9
20260502150938 22 0 0.0 0.0 0.00 0.00 0.00 34 1020.0
20260502130440 23 0 0.0 0.0 0.00 0.00 0.00 38 1021.0
20260502123438 23 0 0.0 0.0 0.00 0.00 0.00 36 1021.4
20260502122939 23 0 0.0 0.0 0.00 0.00 0.00 35 1021.5
20260502122439 23 0 0.0 0.0 0.00 0.00 0.00 38 1021.5
20260502121938 23 0 0.0 0.0 0.00 0.00 0.00 35 1021.6
20260502121438 23 0 0.0 0.0 0.00 0.00 0.00 38 1021.7
20260502120938 22 0 0.0 0.0 0.00 0.00 0.00 36 1021.7
20260502120439 22 0 0.0 0.0 0.00 0.00 0.00 37 1021.8
20260502115439 22 0 0.0 0.0 0.00 0.00 0.00 37 1022.0
20260502114938 22 0 0.0 0.0 0.00 0.00 0.00 36 1022.0
20260502114438 22 0 0.0 0.0 0.00 0.00 0.00 38 1022.1
20260502113439 23 0 0.0 0.0 0.00 0.00 0.00 37 1022.2
20260502112939 23 0 0.0 0.0 0.00 0.00 0.00 36 1022.3
20260502112439 23 0 0.0 0.0 0.00 0.00 0.00 37 1022.3
20260502111939 23 0 0.0 0.0 0.00 0.00 0.00 38 1022.4
20260502111440 22 0 0.0 0.0 0.00 0.00 0.00 38 1022.4
20260502110939 22 0 0.0 0.0 0.00 0.00 0.00 38 1022.4
20260502110439 22 0 0.0 0.0 0.00 0.00 0.00 39 1022.5
20260502105939 22 0 0.0 0.0 0.00 0.00 0.00 41 1022.5
20260502105439 22 0 0.0 0.0 0.00 0.00 0.00 42 1022.6
20260502104940 22 0 0.0 0.0 0.00 0.00 0.00 38 1022.7
20260502104440 22 0 0.0 0.0 0.00 0.00 0.00 38 1022.8
20260502103439 22 0 0.0 0.0 0.00 0.00 0.00 42 1022.7
20260502102939 22 0 0.0 0.0 0.00 0.00 0.00 39 1022.9
20260502102440 22 0 0.0 0.0 0.00 0.00 0.00 39 1022.9
20260502101939 22 0 0.0 0.0 0.00 0.00 0.00 43 1023.0
20260502101439 22 0 0.0 0.0 0.00 0.00 0.00 40 1023.0
20260502100940 22 0 0.0 0.0 0.00 0.00 0.00 41 1023.0
20260502100438 21 0 0.0 0.0 0.00 0.00 0.00 43 1023.0
20260502091440 21 0 0.0 0.0 0.00 0.00 0.00 45 1023.5
20260502090940 21 0 0.0 0.0 0.00 0.00 0.00 45 1023.6
20260502090439 21 0 0.0 0.0 0.00 0.00 0.00 48 1023.7
20260502071440 18 0 0.0 0.0 0.00 0.00 0.00 55 1023.9
20260502070939 17 0 0.0 0.0 0.00 0.00 0.00 62 1024.0
20260502070439 17 0 0.0 0.0 0.00 0.00 0.00 60 1024.0
20260502065940 17 0 0.0 0.0 0.00 0.00 0.00 59 1023.9
20260502064940 16 0 0.0 0.0 0.00 0.00 0.00 63 1024.0
20260502064439 16 0 0.0 0.0 0.00 0.00 0.00 64 1024.0
20260502063941 15 0 0.0 0.0 0.00 0.00 0.00 67 1024.0
20260502062940 15 0 0.0 0.0 0.00 0.00 0.00 67 1024.1
20260502062440 14 0 0.0 0.0 0.00 0.00 0.00 65 1024.0
20260502061939 13 0 0.0 0.0 0.00 0.00 0.00 66 1023.9
20260502060940 13 0 0.0 0.0 0.00 0.00 0.00 69 1024.0
20260502060440 12 0 0.0 0.0 0.00 0.00 0.00 72 1024.0
20260502055940 12 0 0.0 0.0 0.00 0.00 0.00 74 1024.0
20260502055440 11 0 0.0 0.0 0.00 0.00 0.00 77 1024.0
20260502054940 10 0 0.0 0.0 0.00 0.00 0.00 80 1024.0
20260502054439 10 0 0.0 0.0 0.00 0.00 0.00 82 1024.0
20260502053940 9 0 0.0 0.0 0.00 0.00 0.00 85 1024.0
20260502053439 8 0 0.0 0.0 0.00 0.00 0.00 86 1024.0
20260502052940 8 0 0.0 0.0 0.00 0.00 0.00 89 1024.0
20260502052440 7 0 0.0 0.0 0.00 0.00 0.00 90 1024.0
20260502051940 7 0 0.0 0.0 0.00 0.00 0.00 91 1024.0
20260502051440 6 0 0.0 0.0 0.00 0.00 0.00 92 1024.0
20260502050940 6 0 0.0 0.0 0.00 0.00 0.00 92 1024.0
20260502050440 5 0 0.0 0.0 0.00 0.00 0.00 92 1024.0
20260502045440 5 0 0.0 0.0 0.00 0.00 0.00 92 1023.9
20260502044941 4 0 0.0 0.0 0.00 0.00 0.00 92 1023.9
20260502043940 3 0 0.0 0.0 0.00 0.00 0.00 92 1023.9
20260502042940 3 0 0.0 0.0 0.00 0.00 0.00 91 1023.7
20260502042441 3 0 0.0 0.0 0.00 0.00 0.00 91 1023.7
20260502041940 3 0 0.0 0.0 0.00 0.00 0.00 91 1023.6
20260502040940 2 0 0.0 0.0 0.00 0.00 0.00 91 1023.6
20260502035940 2 0 0.0 0.0 0.00 0.00 0.00 91 1023.5
20260502035440 2 0 0.0 0.0 0.00 0.00 0.00 91 1023.5
20260502034940 2 0 0.0 0.0 0.00 0.00 0.00 91 1023.5
20260502034441 2 0 0.0 0.0 0.00 0.00 0.00 91 1023.5
20260502033941 2 0 0.0 0.0 0.00 0.00 0.00 90 1023.6
20260502033440 2 0 0.0 0.0 0.00 0.00 0.00 90 1023.5
20260502032941 2 0 0.0 0.0 0.00 0.00 0.00 91 1023.4
20260502031940 2 0 0.0 0.0 0.00 0.00 0.00 91 1023.4
20260502031440 2 0 0.0 0.0 0.00 0.00 0.00 91 1023.4
20260502030941 2 0 0.0 0.0 0.00 0.00 0.00 90 1023.5
20260502030440 2 0 0.0 0.0 0.00 0.00 0.00 90 1023.5
20260502025440 2 0 0.0 0.0 0.00 0.00 0.00 90 1023.5
20260502024940 2 0 0.0 0.0 0.00 0.00 0.00 90 1023.5
20260502024440 2 0 0.0 0.0 0.00 0.00 0.00 90 1023.6
20260502023940 2 0 0.0 0.0 0.00 0.00 0.00 90 1023.6
20260502023441 2 0 0.0 0.0 0.00 0.00 0.00 90 1023.5
20260502022941 2 0 0.0 0.0 0.00 0.00 0.00 90 1023.4
20260502022440 2 0 0.0 0.0 0.00 0.00 0.00 89 1023.4
20260502021942 2 0 0.0 0.0 0.00 0.00 0.00 89 1023.5
20260502021441 2 0 0.0 0.0 0.00 0.00 0.00 89 1023.4
20260502020940 2 0 0.0 0.0 0.00 0.00 0.00 89 1023.4
20260502020442 3 0 0.0 0.0 0.00 0.00 0.00 89 1023.4
20260502015940 3 0 0.0 0.0 0.00 0.00 0.00 89 1023.4
20260502015441 3 0 0.0 0.0 0.00 0.00 0.00 89 1023.3
20260502014441 3 0 0.0 0.0 0.00 0.00 0.00 89 1023.4
20260502012941 3 0 0.0 0.0 0.00 0.00 0.00 88 1023.5
20260502011440 3 0 0.0 0.0 0.00 0.00 0.00 88 1023.6
20260502010940 3 0 0.0 0.0 0.00 0.00 0.00 88 1023.6
20260502005941 3 0 0.0 0.0 0.00 0.00 0.00 88 1023.6
20260502005441 3 0 0.0 0.0 0.00 0.00 0.00 88 1023.6
20260502004441 4 0 0.0 0.0 0.00 0.00 0.00 88 1023.6
20260502003942 4 0 0.0 0.0 0.00 0.00 0.00 88 1023.7
20260502002940 3 0 0.0 0.0 0.00 0.00 0.00 87 1023.7
20260502002441 3 0 0.0 0.0 0.00 0.00 0.00 87 1023.7
20260502001941 4 0 0.0 0.0 0.00 0.00 0.00 87 1023.7
20260502000941 4 0 0.0 0.0 0.00 0.00 0.00 87 1023.6
20260502000440 4 0 0.0 0.0 0.00 0.00 0.00 87 1023.6
20260501235942 4 0 0.0 0.0 0.00 0.00 0.00 87 1023.6
20260501235441 4 0 0.0 0.0 0.00 0.00 0.00 86 1023.6
20260501234942 4 0 0.0 0.0 0.00 0.00 0.00 86 1023.6
20260501233941 5 0 0.0 0.0 0.00 0.00 0.00 86 1023.5
20260501233441 5 0 0.0 0.0 0.00 0.00 0.00 86 1023.6
20260501232942 5 0 0.0 0.0 0.00 0.00 0.00 85 1023.6
20260501232441 5 0 0.0 0.0 0.00 0.00 0.00 85 1023.6
20260501231941 5 0 0.0 0.0 0.00 0.00 0.00 85 1023.6
20260501231442 5 0 0.0 0.0 0.00 0.00 0.00 85 1023.6
20260501230942 5 0 0.0 0.0 0.00 0.00 0.00 84 1023.7
20260501230441 5 0 0.0 0.0 0.00 0.00 0.00 84 1023.7
20260501225941 5 0 0.0 0.0 0.00 0.00 0.00 84 1023.7
20260501225441 5 0 0.0 0.0 0.00 0.00 0.00 84 1023.8
20260501224941 5 0 0.0 0.0 0.00 0.00 0.00 84 1023.8
20260501224441 5 0 0.0 0.0 0.00 0.00 0.00 83 1023.7
20260501223941 5 0 0.0 0.0 0.00 0.00 0.00 83 1023.7
20260501223441 6 0 0.0 0.0 0.00 0.00 0.00 83 1023.8
20260501222941 6 0 0.0 0.0 0.00 0.00 0.00 82 1023.8